Regional Weather Roundup
Issued by NWS New Orleans/Baton Rouge, LA

Home | Current Version | Previous Version | Text Only | Print | Product List | Glossary On
Versions: 1 2 3 4 5 6 7 8 9 10 11 12 13 14 15 16 17 18 19 20 21 22 23 24 25 26 27 28 29 30 31 32 33 34 35 36 37 38 39 40 41 42 43 44 45 46 47 48 49 50
498
ASUS44 KLIX 010605
RWRLIX
NEW ORLEANS REGIONAL WEATHER ROUNDUP
NATIONAL WEATHER SERVICE NEW ORLEANS LA
100 AM CDT MON SEP 01 2014

NOTE: "FAIR" INDICATES FEW OR NO CLOUDS BELOW 12,000 FEET WITH NO
      SIGNIFICANT WEATHER AND/OR OBSTRUCTIONS TO VISIBILITY.
      SKY/WX - SKY CONDITION AND SIGNIFICANT WEATHER.
      TMP - AIR TEMPERATURE.     DP    - DEWPOINT TEMPERATURE.
      RH  - RELATIVE HUMIDITY.   PRES  - PRESSURE.
      HI  - HEAT INDEX.          WCI   - WIND CHILL INDEX.

*  THESE STATIONS ARE NOT NWS OR FAA STATIONS AND ARE NOT UNDER
   NWS QUALITY CONTROL.

LAZ038-040-048-061>063-065>067-069-010700-
SOUTHEAST LOUISIANA

CITY           SKY/WX    TMP DP  RH WIND       PRES   REMARKS
N.O. AUDUBON     N/A     84  79  84 MISG        N/A  HX  95
6HR MIN TEMP:  84; 6HR MAX TEMP:  88;

N.O. INTL ARPT MOCLDY    82  76  81 SE9       30.02F
6HR MIN TEMP:  82; 6HR MAX TEMP:  86;

N.O. LAKEFRONT   N/A     81  77  88 SE8       30.04F
6HR MIN TEMP:  81; 6HR MAX TEMP:  86;

N.O. DOWNTOWN*   N/A     82  73  74 SE5       30.04S
6HR MIN TEMP:  82; 6HR MAX TEMP:  88;

SLIDELL          N/A     80  76  87 SE5       30.03F
6HR MIN TEMP:  80; 6HR MAX TEMP:  86;

BATON ROUGE      N/A     78  75  90 E5        30.02F
6HR MIN TEMP:  77; 6HR MAX TEMP:  87;

BOOTHVILLE       N/A     83  78  85 SE6       30.04F
6HR MIN TEMP:  83; 6HR MAX TEMP:  86;

BELLE CHASSE     N/A     83  75  77 SE7       30.03F
6HR MIN TEMP:  81; 6HR MAX TEMP:  87;

BOGALUSA*        N/A     76  72  88 CALM      30.05F
6HR MIN TEMP:  76; 6HR MAX TEMP:  87;

GALLIANO*      NOT AVBL
NEW ROADS*       N/A     77  75  92 CALM      30.02S
6HR MIN TEMP:  77; 6HR MAX TEMP:  87;

GONZALES*        N/A     79  79 100 CALM      30.02S
6HR MIN TEMP:  77; 6HR MAX TEMP:  87;

HAMMOND*         N/A     75  72  88 CALM      30.04F
HOUMA*           N/A     80  75  85 E5        30.01F
6HR MIN TEMP:  79; 6HR MAX TEMP:  84;

PORT FOURCHON* NOT AVBL

$$

MSZ070-080>082-010700-
SOUTHERN MISSISSIPPI

CITY           SKY/WX    TMP DP  RH WIND       PRES   REMARKS
MCCOMB           N/A     76  74  93 SE6       30.05S
6HR MIN TEMP:  76; 6HR MAX TEMP:  83;

GULFPORT         N/A     83  76  79 SE9       30.03F
6HR MIN TEMP:  83; 6HR MAX TEMP:  86;

BILOXI           N/A     84  76  77 S10       30.04F
6HR MIN TEMP:  84; 6HR MAX TEMP:  85;

PASCAGOULA       N/A     75  74  96 CALM      30.05F
6HR MIN TEMP:  74; 6HR MAX TEMP:  84;


$$

COASTAL OBSERVATIONS
LAKE AND NEARSHORE STATIONS

STATION/POSITION TIME  TEMP    WIND        PRES    WAVE
                       AIR SEA DIR/SP/G            HT/PER
                 (UTC) (F)     (DEG/KT/KT) (MB)    (FT/S)
PASCAGOULA       0600   85     140/ 10/ 12 1017.1
WAVELAND YACHT   0600   85     150/ 14/ 16 1016.5
GRAND ISLE       0600   84 85  150/  9/ 14 1017.4
SOUTHWEST PASS   0600   85 90  140/ 14/ 17 1017.4
NEW CANAL        0600   82 81  140/  3/  5 1017.4
SHELL BEACH      0600   82 80  140/  6/  8 1016.9

OFFSHORE STATIONS

STATION/POSITION TIME  TEMP    WIND        PRES    WAVE
                       AIR SEA DIR/SP/G            HT/PER
                 (UTC) (F)     (DEG/KT/KT) (MB)    (FT/S)
64 S DAUPHIN ISL 0500   84 85  130/ 14     1018.1

$$




USA.gov is the U.S. government's official web portal to all federal, state and local government web resources and services.